Martinsburg, WV

4:12 AM EDT on April 30, 2017 (GMT -0400)
Eastern W Va Regional-Shepherd

Weather History for KMRB - August, 2014

Change the Weather History Date:

Monday, August 4, 2014

  Actual Average Record
Temperature  
Mean Temperature 73 °F 74 °F  
Max Temperature 85 °F 85 °F 102 °F (1930)
Min Temperature 60 °F 63 °F 47 °F (1965)
Degree Days  
Heating Degree Days 0 0  
Month to date heating degree days 0 0  
Since 1 June heating degree days 5 25  
Since 1 July heating degree days 3 1  
Cooling Degree Days 8 9  
Month to date cooling degree days 29 36  
Year to date cooling degree days 647 579  
Since 1 June cooling degree days 566 522  
Growing Degree Days 22 (Base 50)    
Moisture  
Dew Point 61 °F    
Average Humidity 69    
Maximum Humidity 93    
Minimum Humidity 44    
Precipitation  
Precipitation 0.00 in 0.10 in 1.25 in (1929)
Month to date precipitation 0.50 0.43  
Year to date precipitation 22.74 23.59  
Sea Level Pressure  
Sea Level Pressure 30.10 in    
Wind  
Wind Speed 3 mph (SSE)    
Max Wind Speed 10 mph    
Max Gust Speed 14 mph    
Visibility 6 miles    
Events Fog    
T = Trace of Precipitation, MM = Missing Value Source: NWS Daily Summary

Daily Weather History Graph

Daily Weather History Graph

Search for Another Location

Airport or City:

Trip Planner

Search our weather history database for the weather conditions in past years. The results will help you decide how hot, cold, wet, or windy it might be!

Date:

Astronomy

Aug. 04, 2014 Rise Set
Actual Time 6:14 AM EDT 8:20 PM EDT
Civil Twilight 5:44 AM EDT 8:50 PM EDT
Nautical Twilight 5:08 AM EDT 9:26 PM EDT
Astronomical Twilight 4:28 AM EDT 10:06 PM EDT
Moon 2:31 PM EDT (8/4) 12:19 AM EDT (8/4)
Length of Visible Light 15h 05m
Length of Day
14h 06m
First Quarter, 57% of the Moon is Illuminated
Aug 4
First Quarter
Aug 10
Full
Aug 17
Last Quarter
Aug 25
New
Sep 2
First Quarter

Hourly Weather History & Observations

Time (EDT) Temp. Heat Index Dew Point Humidity Pressure Visibility Wind Dir Wind Speed Gust Speed Precip Events Conditions
12:53 AM 64.9 °F - 62.1 °F 90% 30.10 in 8.0 mi Calm Calm - N/A   Clear
2:42 AM 63.0 °F - 60.1 °F 90% 30.09 in 2.5 mi SSE 4.6 mph - N/A   Partly Cloudy
2:46 AM 63.0 °F - 61.0 °F 93% 30.10 in 1.0 mi South 3.5 mph - N/A   Mist
2:53 AM 63.0 °F - 60.1 °F 90% 30.09 in 0.5 mi SSW 3.5 mph - N/A Fog Fog
3:23 AM 63.0 °F - 60.1 °F 90% 30.09 in 1.5 mi SSW 3.5 mph - N/A   Mostly Cloudy
3:26 AM 63.0 °F - 60.1 °F 90% 30.09 in 2.5 mi Calm Calm - N/A   Scattered Clouds
3:34 AM 63.0 °F - 60.1 °F 90% 30.09 in 4.0 mi SW 3.5 mph - N/A   Partly Cloudy
3:53 AM 63.0 °F - 60.1 °F 90% 30.08 in 4.0 mi Calm Calm - N/A   Partly Cloudy
4:53 AM 62.1 °F - 59.0 °F 90% 30.08 in 8.0 mi West 3.5 mph - N/A   Clear
5:57 AM 61.0 °F - 57.9 °F 90% 30.11 in 0.2 mi SE 3.5 mph - N/A Fog Fog
6:34 AM 61.0 °F - 57.9 °F 90% 30.11 in 0.5 mi Calm Calm - N/A Fog Fog
6:50 AM 62.6 °F - 59.0 °F 88% 30.12 in 1.5 mi Calm Calm - N/A   Scattered Clouds
6:53 AM 62.1 °F - 59.0 °F 90% 30.11 in 4.0 mi Calm Calm - N/A   Scattered Clouds
8:10 AM 64.9 °F - 61.0 °F 87% 30.13 in 1.8 mi SSE 4.6 mph - N/A   Scattered Clouds
8:12 AM 64.0 °F - 61.0 °F 90% 30.13 in 0.8 mi SE 4.6 mph - N/A   Mist
8:14 AM 64.0 °F - 61.0 °F 90% 30.14 in 0.2 mi SE 4.6 mph - N/A Fog Fog
8:26 AM 64.0 °F - 62.1 °F 93% 30.14 in 1.0 mi Calm Calm - N/A   Mist
8:31 AM 64.9 °F - 62.1 °F 90% 30.14 in 3.0 mi SSE 3.5 mph - N/A   Mostly Cloudy
8:43 AM 66.0 °F - 63.0 °F 90% 30.14 in 7.0 mi SSE 3.5 mph - N/A   Scattered Clouds
8:53 AM 66.9 °F - 63.0 °F 87% 30.13 in 6.0 mi SSE 3.5 mph - N/A   Partly Cloudy
9:53 AM 73.0 °F - 62.1 °F 68% 30.14 in 10.0 mi North 3.5 mph - N/A   Clear
10:53 AM 77.0 °F - 61.0 °F 58% 30.13 in 10.0 mi NW 6.9 mph - N/A   Clear
11:53 AM 79.0 °F - 61.0 °F 54% 30.12 in 10.0 mi Variable 4.6 mph - N/A   Partly Cloudy
12:53 PM 81.0 °F 81.7 °F 61.0 °F 50% 30.11 in 10.0 mi North - - N/A   Clear
1:53 PM 82.0 °F 82.1 °F 59.0 °F 45% 30.10 in 10.0 mi Variable 3.5 mph - N/A   Partly Cloudy
2:53 PM 84.0 °F 84.4 °F 61.0 °F 46% 30.08 in 10.0 mi ENE 5.8 mph - N/A   Clear
3:53 PM 82.9 °F 83.3 °F 61.0 °F 47% 30.07 in 10.0 mi Variable 5.8 mph - N/A   Clear
4:53 PM 84.9 °F 85.0 °F 61.0 °F 44% 30.06 in 10.0 mi East 5.8 mph - N/A   Clear
5:53 PM 82.9 °F 83.7 °F 62.1 °F 49% 30.06 in 10.0 mi East 6.9 mph - N/A   Clear
6:53 PM 81.0 °F 81.7 °F 61.0 °F 50% 30.07 in 10.0 mi East 3.5 mph - N/A   Clear
7:53 PM 77.0 °F - 66.0 °F 69% 30.07 in 10.0 mi Calm Calm - N/A   Clear
8:53 PM 72.0 °F - 63.0 °F 73% 30.08 in 10.0 mi Calm Calm - N/A   Clear
9:53 PM 70.0 °F - 63.0 °F 78% 30.09 in 9.0 mi Calm Calm - N/A   Clear
10:53 PM 69.1 °F - 63.0 °F 81% 30.09 in 8.0 mi WSW 3.5 mph - N/A   Clear
11:53 PM 66.9 °F - 63.0 °F 87% 30.10 in 7.0 mi Calm Calm - N/A   Clear